Regional Weather Roundup
Issued by NWS Bismarck, ND

Home | Current Version | Previous Version | Text Only | Print | Product List | Glossary On
Versions: 1 2 3 4 5 6 7 8 9 10 11 12 13 14 15 16 17 18 19 20 21 22 23 24 25 26 27 28 29 30 31 32 33 34 35 36 37 38 39 40 41 42 43 44 45 46 47 48 49 50
000
ASUS43 KBIS 261302
RWRBIS

NWR BROADCAST TEXT
NATIONAL WEATHER SERVICE BISMARCK ND
800 AM CDT SUN MAR 26 2017

NOTE: "FAIR" INDICATES FEW OR NO CLOUDS BELOW 12,000 FEET WITH NO
SIGNIFICANT WEATHER AND/OR OBSTRUCTIONS TO VISIBILITY.


CITY           SKY/WX    TMP DP  RH WIND       PRES   REMARKS
WILLISTON      FAIR      31  28  89 CALM      29.90R
MINOT          FAIR      35  32  88 SE3       29.89S
MINOT AFB      FAIR      34  32  92 CALM      29.89R
BISMARCK       CLOUDY    37  34  89 E6        29.93S
DICKINSON      CLOUDY    37  33  85 SW3       29.88S
GARRISON         N/A     35  32  88 N5        29.90R
HETTINGER ARPT CLOUDY    40  35  83 NE5       29.92R
JAMESTOWN      FOG       34  34 100 SW5       29.93F VSB 3/4
HAZEN          FAIR      36  34  93 CALM      29.91S
LINTON         FOG       36  36 100 CALM      29.95R VSB 1/2
MANDAN         CLOUDY    36  36 100 SE5       29.92S
STANLEY        FAIR      34  34 100 CALM      29.92R
TIOGA          FAIR      32  32 100 CALM      29.91S
WATFORD CITY   FAIR      36  32  87 W3        29.90R
$$

CITY           SKY/WX    TMP DP  RH WIND       PRES   REMARKS
GRAND FORKS    CLOUDY    34  33  96 S10       29.94F
GRAND FORKS AF CLOUDY    33  33  99 S8        29.94F
DEVILS LAKE    CLOUDY    33  32  96 CALM      29.93R FOG
FARGO          CLOUDY    35  34  96 CALM      29.98S FOG
CAVALIER         N/A     34  32  93 S7        29.93F FOG
GRAFTON        PTSUNNY   34  34 100 S7        29.96S FOG
GWINNER        CLOUDY    34  34 100 MISG      29.97R FOG
LANGDON        CLOUDY    32  32 100 SW3       29.91S FOG
ROLLA          FAIR      32  32 100 CALM      29.91R
$$

CITY           SKY/WX    TMP DP  RH WIND       PRES   REMARKS
ABERDEEN       CLOUDY    35  33  92 E6        29.95R FOG
MOBRIDGE       CLOUDY    40  36  86 CALM      29.91R
BUFFALO          N/A     43  38  82 N14       29.83R
RAPID CITY     LGT RAIN  40  35  83 N22       29.84R
GLASGOW        FAIR      32  26  78 NW12      29.89S
SIDNEY         FAIR      35  29  78 S8        29.90S
WOLF POINT     FAIR      29  26  89 SW5       29.90R
GLENDIVE       FAIR      40  34  79 SW9       29.91S
MILES CITY     FAIR      39  34  82 S5        29.92R
BAKER          MOCLDY    39  36  89 NW7       29.93R
$$

CITY           SKY/WX    TMP DP  RH WIND       PRES   REMARKS
BILLINGS       MOCLDY    37  32  82 SW8       29.94R
GREAT FALLS    FAIR      33  22  63 SW10      29.92R
$$





USA.gov is the U.S. government's official web portal to all federal, state and local government web resources and services.